Sacramento, CA

10:17 AM PDT on August 19, 2017 (GMT -0700)
Sacramento Executive

Weather History for KSAC - July, 2013

Change the Weather History Date:

Saturday, July 6, 2013

  Actual Average Record
Temperature  
Mean Temperature 72 °F -  
Max Temperature 87 °F 91 °F 104 °F (1989)
Min Temperature 57 °F 58 °F 49 °F (1955)
Degree Days  
Heating Degree Days 0    
Cooling Degree Days 7    
Growing Degree Days 22 (Base 50)    
Moisture  
Dew Point 52 °F    
Average Humidity 55    
Maximum Humidity 80    
Minimum Humidity 29    
Precipitation  
Precipitation 0.00 in 0.00 in 0.00 in (2017)
Month to date precipitation 0.00 0.01  
Year to date precipitation 3.91 11.91  
Since 1 July precipitation 0.00  
Sea Level Pressure  
Sea Level Pressure 29.72 in    
Wind  
Wind Speed 8 mph (SSW)    
Max Wind Speed 14 mph    
Max Gust Speed 20 mph    
Visibility 10 miles    
Events      
T = Trace of Precipitation, MM = Missing Value Source: NWS Daily Summary

Daily Weather History Graph

Daily Weather History Graph

Search for Another Location

Airport or City:

Trip Planner

Search our weather history database for the weather conditions in past years. The results will help you decide how hot, cold, wet, or windy it might be!

Date:

Astronomy

Jul. 06, 2013 Rise Set
Actual Time 5:48 AM PDT 8:33 PM PDT
Civil Twilight 5:16 AM PDT 9:04 PM PDT
Nautical Twilight 4:37 AM PDT 9:43 PM PDT
Astronomical Twilight 3:52 AM PDT 10:28 PM PDT
Moon 4:37 AM PDT (7/6) 7:19 PM PDT (7/6)
Length of Visible Light 15h 47m
Length of Day
14h 44m
Waning Crescent, 2% of the Moon is Illuminated
Jul 6
Waning Crescent
Jul 8
New
Jul 15
First Quarter
Jul 22
Full
Jul 29
Last Quarter

Hourly Weather History & Observations

Time (PDT) Temp. Heat Index Dew Point Humidity Pressure Visibility Wind Dir Wind Speed Gust Speed Precip Events Conditions
12:53 AM 61.0 °F - 51.1 °F 70% 29.70 in 10.0 mi SSW 8.1 mph - N/A   Clear
1:53 AM 59.0 °F - 51.1 °F 75% 29.71 in 10.0 mi SSW 8.1 mph - N/A   Clear
2:53 AM 57.9 °F - 51.1 °F 78% 29.71 in 9.0 mi SSW 9.2 mph - N/A   Clear
3:53 AM 57.9 °F - 51.1 °F 78% 29.71 in 9.0 mi SSW 9.2 mph 17.3 mph N/A   Clear
4:53 AM 57.0 °F - 51.1 °F 81% 29.72 in 9.0 mi SSW 9.2 mph - N/A   Clear
5:53 AM 57.0 °F - 51.1 °F 81% 29.73 in 7.0 mi SSW 8.1 mph - N/A   Clear
6:53 AM 57.9 °F - 51.1 °F 78% 29.75 in 8.0 mi SSW 10.4 mph - N/A   Clear
7:53 AM 61.0 °F - 52.0 °F 72% 29.75 in 10.0 mi South 6.9 mph - N/A   Clear
8:53 AM 64.9 °F - 52.0 °F 63% 29.77 in 10.0 mi SSW 9.2 mph - N/A   Clear
9:53 AM 68.0 °F - 53.1 °F 59% 29.77 in 10.0 mi SSW 9.2 mph - N/A   Clear
10:53 AM 73.0 °F - 53.1 °F 49% 29.77 in 10.0 mi South 6.9 mph - N/A   Clear
11:53 AM 77.0 °F - 54.0 °F 45% 29.76 in 10.0 mi South 6.9 mph - N/A   Clear
12:53 PM 79.0 °F - 53.1 °F 40% 29.75 in 10.0 mi SW 9.2 mph - N/A   Clear
1:53 PM 82.9 °F 81.8 °F 53.1 °F 36% 29.74 in 10.0 mi SSW 9.2 mph - N/A   Clear
2:53 PM 84.9 °F - 52.0 °F 32% 29.72 in 10.0 mi SW 8.1 mph - N/A   Clear
3:53 PM 84.9 °F 83.2 °F 53.1 °F 33% 29.70 in 10.0 mi SSW 6.9 mph - N/A   Clear
4:53 PM 87.1 °F - 52.0 °F 30% 29.69 in 10.0 mi Variable 5.8 mph - N/A   Clear
5:53 PM 84.9 °F - 48.0 °F 28% 29.68 in 10.0 mi SSW 10.4 mph - N/A   Clear
6:53 PM 82.0 °F - 50.0 °F 33% 29.68 in 10.0 mi SSW 8.1 mph - N/A   Clear
7:53 PM 77.0 °F - 51.1 °F 40% 29.68 in 10.0 mi SSW 5.8 mph - N/A   Clear
8:53 PM 72.0 °F - 52.0 °F 49% 29.70 in 10.0 mi South 5.8 mph - N/A   Clear
9:53 PM 68.0 °F - 51.1 °F 55% 29.71 in 10.0 mi South 5.8 mph - N/A   Clear
10:53 PM 66.0 °F - 52.0 °F 60% 29.72 in 10.0 mi SSW 8.1 mph - N/A   Clear
11:53 PM 63.0 °F - 52.0 °F 67% 29.73 in 10.0 mi South 4.6 mph - N/A   Clear